sat.trackr.live / text

‹ back to catalog

COSMOS 2477 (745)

NORAD 37868 · 2011-064B

PAYLOAD ACTIVE UNKNOWN

§ Identity

Operator
Country
CIS
Launch date
2011-11-04
Launch site
TYMSC
Launch vehicle
Mass (kg)
RCS (m²)
5.57

Purposes: nav

External: N2YO · Heavens-Above · Gunter

§ Orbital elements

Epoch: 2026-09-19T13:37:24.384576Z

Period
675.73 min
Inclination
65.3351°
Eccentricity
0.0019593
Mean motion
2.13103024 rev/d
Perigee alt
19,079.8 km
Apogee alt
19,179.8 km
Semi-major
25,507.9 km
B*
0.0000e+0
RAAN
69.7679°
Arg perigee
230.4390°
Mean anomaly
160.0639°
Rev number
11,577

§ Raw data

COSMOS 2477 (745)1 37868U 11064B   26262.56764334  .00000031  00000+0  00000+0 0  99922 37868  65.3351  69.7679 0019593 230.4390 160.0639  2.13103024115771

JSON: /api/v1/satellites/37868 · /tle

For live sub-satellite position, see the globe view (requires WebGL).

§ Visibility from observer

Set your observer location to see the next 7 days of passes ≥ 10°. The values pass through the URL so the page stays shareable.

No JS? Fill the form by hand. The geolocation button needs JavaScript.